Wind_Speed
32 31 30 29 28 27 27 26 24 21 20 20 20 19 18 16 16 15 15 14 14 14 13 13 12 11 11 12 13 12 10 9 7 6 6 6 6 7 8 8 8 9
33 32 31 30 29 28 28 27 25 23 21 20 20 19 18 17 17 17 15 15 14 14 13 13 13 12 11 12 13 13 12 11 9 8 7 7 6 7 7 8 8 9
32 33 32 31 30 29 28 27 26 25 23 21 21 20 19 19 18 18 16 16 15 14 14 14 13 13 12 12 12 12 12 12 10 9 9 8 7 7 7 7 8 9
32 33 33 32 30 29 29 28 27 26 25 24 22 22 21 20 20 19 18 17 16 15 15 15 14 14 13 13 13 13 12 12 11 10 10 9 8 8 7 8 8 8
32 33 33 32 32 30 30 29 28 27 26 26 24 23 22 22 21 21 20 19 18 17 17 16 15 14 14 13 13 13 12 11 10 11 11 9 8 8 8 8 9 9
32 32 32 32 32 32 32 31 29 27 27 26 25 24 23 22 22 22 22 21 19 19 18 17 16 15 15 14 14 14 13 12 11 11 12 11 10 10 9 10 10 10
33 32 32 32 32 33 33 33 31 29 27 26 26 26 24 23 23 23 23 22 20 20 19 18 17 16 16 16 15 15 14 13 13 12 12 12 11 11 11 11 11 11
34 33 32 32 32 33 34 34 33 32 29 28 27 27 25 24 23 24 24 23 22 21 20 19 18 17 17 17 16 16 15 15 14 14 14 13 13 12 12 12 12 12
34 33 33 33 33 33 35 36 35 34 32 30 29 28 27 25 23 23 24 24 23 22 21 20 18 17 17 17 16 16 16 16 15 15 15 14 14 13 13 13 13 13
36 35 34 34 34 34 34 36 36 36 35 33 31 30 29 27 25 24 24 24 24 24 23 21 20 19 18 17 16 16 16 17 17 17 16 16 15 14 14 14 14 14
38 37 36 35 34 34 34 35 36 37 37 35 34 33 31 29 28 27 26 26 26 25 24 23 22 21 20 19 18 17 17 18 18 18 18 17 17 16 15 15 15 15
40 39 38 36 35 34 34 34 35 37 37 37 36 35 33 32 31 30 29 29 28 27 26 26 24 23 23 22 21 20 19 19 19 19 19 19 18 18 17 17 16 16
41 40 39 37 35 34 33 33 34 36 37 38 38 37 36 35 33 33 32 31 31 30 29 29 28 27 26 25 24 23 22 22 21 21 20 20 20 19 18 18 18 18
42 41 39 37 36 34 33 33 33 34 36 38 39 39 39 38 36 35 34 33 33 32 32 32 31 31 30 28 27 26 25 25 24 24 23 22 21 20 20 19 19 19
41 41 40 38 37 36 35 33 33 33 34 36 38 39 40 40 39 38 37 36 35 34 34 34 34 34 33 32 30 29 29 28 27 26 26 25 24 23 21 20 20 19
42 41 40 40 39 38 37 35 34 33 33 34 36 38 39 40 40 40 40 40 39 37 37 37 37 36 35 34 33 32 32 31 30 29 28 27 27 25 24 22 21 20
42 41 41 41 40 39 38 37 36 35 34 33 34 35 36 38 39 40 41 41 41 40 39 39 39 37 36 35 34 33 33 33 32 31 30 29 29 28 27 25 23 22
41 41 41 41 40 40 39 38 37 36 36 35 34 33 33 35 37 38 40 40 41 41 41 41 40 39 38 37 36 35 34 34 33 32 31 31 30 29 29 27 26 25
41 41 42 42 41 40 39 39 39 38 37 36 35 34 34 34 34 35 36 37 39 40 41 41 40 39 38 38 37 36 35 35 35 34 33 32 32 31 30 29 28 27
39 37 37 39 41 41 41 40 39 38 37 36 35 35 35 34 33 33 34 34 35 37 38 39 39 39 38 38 37 36 35 35 35 34 34 33 33 32 31 30 30 29
41 36 31 31 33 38 41 41 39 38 37 36 36 36 35 34 33 33 33 32 33 34 35 37 38 38 38 37 37 35 35 35 34 34 33 33 33 32 32 31 31 30
42 39 35 32 31 33 38 39 39 37 36 35 35 35 35 35 34 34 33 32 32 32 33 35 36 36 36 36 36 35 34 34 34 33 32 32 32 31 31 31 31 31
40 40 40 38 36 35 35 36 37 36 35 34 35 35 34 35 35 34 33 33 32 32 32 32 33 34 34 34 34 33 33 33 33 32 32 31 31 30 30 30 30 30
40 39 39 39 40 39 37 35 35 35 35 34 35 35 34 34 34 34 34 33 33 32 31 30 30 29 30 31 31 31 32 32 32 32 31 31 30 29 29 29 29 29
38 39 39 38 39 39 38 36 35 35 35 35 36 36 35 35 35 35 35 34 33 32 31 30 29 27 26 27 28 29 30 31 31 32 31 30 29 29 29 29 28 28
31 34 36 36 35 36 36 36 35 35 36 37 38 37 37 37 37 37 36 35 34 33 32 31 30 28 26 25 25 26 28 30 31 32 32 30 29 29 29 29 28 27
Wind_Direction
223 224 225 227 228 228 229 230 228 225 225 225 224 222 222 223 223 223 224 224 227 227 224 222 223 225 225 224 224 226 224 217 214 216 224 234 245 247 248 249 249 248
222 224 226 228 229 229 229 230 231 229 226 227 228 226 226 227 227 227 227 227 228 230 229 226 225 226 228 229 232 236 237 231 224 229 237 239 242 245 247 249 250 249
224 224 226 227 228 229 230 230 231 231 230 230 230 230 230 230 231 231 230 230 229 232 233 231 228 228 229 232 237 242 244 240 235 237 246 251 251 249 250 252 251 249
226 225 225 226 227 228 230 231 232 232 232 232 231 231 232 233 233 232 232 231 230 231 233 233 232 231 231 233 239 244 246 244 240 240 245 253 259 260 259 260 259 254
229 228 227 226 227 228 230 232 233 234 234 235 234 233 233 234 234 233 232 231 229 230 231 232 233 234 234 236 240 246 249 248 244 244 246 249 255 262 264 266 265 263
231 231 230 229 228 228 229 232 234 235 236 237 237 237 236 236 235 234 233 230 229 230 231 232 234 237 239 241 244 246 248 249 249 248 248 248 249 254 259 263 266 266
233 233 233 232 231 230 230 232 235 236 237 238 239 240 240 239 237 235 234 232 230 229 230 232 236 239 243 245 248 250 249 248 250 252 253 252 252 252 256 260 264 265
235 235 235 235 234 233 233 233 235 237 238 238 239 241 242 242 240 238 237 235 232 229 228 231 235 239 243 246 249 251 251 250 251 254 257 259 258 257 258 261 264 266
237 238 238 237 236 236 236 235 236 237 238 239 239 239 241 242 241 240 239 237 235 232 230 231 234 237 240 245 249 251 252 253 253 255 257 259 262 263 265 267 268 268
238 239 240 240 239 238 237 238 238 238 238 239 240 240 240 240 241 241 241 239 237 235 235 235 236 237 239 243 247 250 253 254 255 257 258 259 261 263 265 268 270 271
238 240 241 241 242 241 239 239 239 240 240 240 240 241 241 240 240 242 243 243 243 242 242 242 241 242 244 245 248 251 255 257 258 259 260 261 262 263 263 265 268 270
239 240 241 243 244 245 244 242 241 241 242 242 242 242 242 242 242 242 243 244 246 248 249 250 249 249 249 249 251 253 257 260 262 262 262 263 264 264 264 265 266 268
239 241 243 244 246 247 247 246 245 244 244 244 244 244 244 244 243 243 244 245 247 249 251 253 255 254 254 254 254 256 258 261 263 265 266 266 266 266 266 267 267 267
241 242 244 245 247 248 248 248 247 246 245 245 245 245 245 245 245 245 246 246 247 249 251 254 256 257 257 257 258 259 261 263 264 265 267 267 267 267 268 268 268 268
241 243 244 246 247 248 248 249 248 247 246 245 245 246 247 247 247 247 248 248 249 250 252 253 255 257 257 258 259 260 262 264 265 266 267 267 267 267 267 269 270 271
241 243 244 246 247 248 249 249 250 249 248 247 246 246 247 248 249 249 250 251 251 252 253 254 255 256 257 257 258 260 261 263 264 265 266 267 266 266 265 266 268 271
241 243 244 246 247 249 250 251 251 251 250 250 249 248 248 248 249 250 251 252 253 253 254 255 256 257 257 258 258 259 260 261 262 263 264 265 266 266 265 264 266 268
241 243 244 247 248 250 251 252 252 252 252 252 252 251 251 250 250 251 251 252 253 254 255 255 256 257 257 257 258 258 259 260 261 262 262 263 264 265 266 265 266 267
239 241 244 246 249 250 252 252 252 252 252 253 253 253 253 254 254 253 253 253 253 254 255 255 256 256 256 256 256 256 257 259 261 261 262 262 263 264 265 266 266 268
235 237 242 246 248 250 251 251 252 252 253 254 254 254 254 254 255 255 255 255 255 255 255 255 255 255 255 255 255 255 256 258 260 261 262 262 263 263 264 265 265 267
235 235 236 240 243 246 247 249 251 253 254 254 254 255 255 255 255 255 256 257 257 257 257 256 255 253 254 254 254 254 255 257 259 260 261 262 262 263 264 264 264 266
237 237 235 235 238 240 243 246 249 251 253 254 255 255 256 256 256 256 256 256 256 257 258 258 255 252 252 253 253 253 254 256 258 259 260 261 261 261 263 263 263 264
239 239 238 238 238 238 240 244 248 250 252 253 254 254 255 256 256 257 257 257 257 257 259 260 257 253 251 251 251 252 254 255 256 257 258 259 259 260 261 262 262 262
238 239 239 240 239 238 241 245 247 250 253 254 254 256 257 257 258 259 259 260 260 260 261 264 263 258 255 253 250 251 253 254 254 255 257 257 258 259 260 261 260 260
241 239 238 238 238 239 243 247 250 252 254 255 256 257 258 259 259 259 260 261 262 263 263 265 266 264 261 256 252 250 252 253 253 255 255 255 256 257 258 260 259 259
244 242 238 236 237 241 245 249 252 254 255 255 256 257 258 259 259 259 261 262 263 264 264 264 265 265 263 260 255 252 252 253 253 254 254 254 255 256 257 259 259 258
Height
1572 1573 1575 1577 1579 1581 1583 1584 1586 1587 1589 1590 1592 1593 1594 1596 1598 1599 1600 1601 1602 1604 1605 1606 1607 1607 1608 1609 1610 1610 1611 1611 1612 1612 1613 1613 1614 1614 1615 1615 1616 1617
1570 1572 1574 1576 1577 1579 1581 1583 1585 1586 1588 1589 1591 1592 1594 1595 1597 1598 1599 1600 1601 1603 1604 1605 1606 1607 1608 1608 1609 1610 1610 1611 1612 1612 1612 1613 1614 1614 1614 1615 1615 1616
1568 1570 1571 1574 1575 1578 1579 1581 1583 1585 1586 1588 1589 1591 1593 1594 1596 1597 1598 1599 1600 1602 1603 1604 1605 1606 1607 1607 1608 1609 1610 1610 1611 1612 1612 1613 1613 1614 1614 1615 1615 1616
1566 1568 1569 1572 1574 1576 1578 1580 1581 1583 1584 1586 1588 1589 1591 1593 1594 1595 1597 1598 1599 1601 1602 1603 1604 1605 1606 1606 1607 1608 1609 1610 1610 1611 1611 1612 1613 1613 1614 1614 1615 1615
1564 1566 1568 1570 1572 1574 1576 1578 1579 1581 1582 1584 1586 1588 1589 1591 1592 1594 1595 1597 1598 1599 1601 1602 1603 1604 1604 1605 1606 1607 1607 1608 1609 1610 1610 1611 1612 1613 1613 1614 1614 1615
1562 1564 1566 1568 1570 1572 1574 1575 1577 1579 1581 1582 1584 1586 1587 1589 1591 1592 1594 1595 1597 1598 1599 1600 1601 1602 1603 1604 1605 1605 1606 1607 1608 1609 1609 1610 1611 1612 1612 1613 1613 1614
1559 1562 1564 1566 1568 1570 1571 1573 1575 1577 1579 1581 1582 1584 1586 1587 1589 1590 1592 1594 1595 1597 1598 1599 1600 1601 1602 1603 1603 1604 1605 1605 1606 1607 1608 1609 1610 1611 1611 1612 1613 1613
1557 1559 1562 1564 1566 1568 1569 1571 1573 1575 1577 1579 1580 1582 1584 1585 1587 1589 1591 1592 1593 1595 1596 1598 1599 1600 1601 1601 1602 1603 1603 1604 1605 1606 1607 1608 1608 1609 1610 1611 1612 1612
1555 1557 1559 1561 1563 1565 1567 1569 1571 1573 1575 1576 1578 1580 1582 1583 1585 1587 1589 1590 1592 1593 1595 1596 1597 1598 1599 1600 1601 1601 1602 1603 1603 1604 1605 1606 1607 1608 1609 1610 1610 1611
1552 1554 1556 1558 1560 1562 1564 1566 1568 1570 1572 1574 1576 1578 1579 1581 1583 1585 1587 1588 1590 1591 1593 1594 1595 1596 1597 1598 1599 1600 1601 1601 1602 1603 1603 1604 1605 1606 1607 1608 1609 1609
1549 1551 1553 1555 1557 1559 1561 1563 1565 1567 1569 1571 1573 1575 1577 1579 1581 1582 1584 1586 1587 1589 1591 1592 1593 1595 1596 1597 1597 1598 1599 1600 1601 1601 1602 1603 1604 1605 1606 1607 1607 1608
1545 1548 1549 1551 1554 1556 1558 1561 1563 1564 1566 1568 1570 1572 1574 1576 1577 1579 1581 1583 1585 1586 1588 1590 1591 1592 1594 1595 1596 1597 1597 1598 1599 1599 1600 1601 1602 1603 1604 1605 1606 1606
1542 1544 1546 1549 1551 1553 1555 1558 1559 1561 1563 1564 1566 1568 1570 1572 1574 1576 1578 1579 1581 1583 1585 1587 1588 1590 1591 1592 1593 1594 1595 1596 1597 1598 1598 1599 1600 1601 1602 1603 1603 1604
1539 1541 1543 1546 1548 1550 1552 1554 1555 1557 1559 1561 1562 1564 1566 1568 1570 1572 1574 1576 1578 1579 1581 1583 1584 1586 1588 1589 1591 1592 1593 1594 1595 1595 1596 1597 1598 1599 1599 1600 1601 1602
1536 1538 1540 1543 1545 1546 1548 1550 1551 1553 1555 1557 1558 1560 1562 1564 1566 1568 1570 1572 1574 1575 1577 1579 1580 1582 1584 1586 1588 1589 1590 1591 1592 1593 1594 1594 1595 1596 1597 1598 1599 1600
1532 1534 1537 1539 1540 1542 1544 1546 1548 1550 1551 1553 1554 1556 1558 1560 1562 1564 1565 1567 1569 1571 1573 1574 1576 1577 1579 1582 1584 1585 1587 1588 1589 1590 1591 1592 1592 1593 1594 1595 1596 1597
1528 1530 1533 1535 1536 1538 1540 1542 1545 1546 1548 1549 1550 1552 1554 1556 1558 1559 1561 1563 1565 1566 1568 1569 1571 1573 1575 1578 1580 1582 1583 1585 1586 1587 1588 1588 1589 1590 1591 1592 1593 1594
1524 1526 1528 1530 1532 1534 1536 1538 1541 1543 1544 1546 1547 1548 1550 1552 1554 1555 1557 1559 1560 1562 1563 1564 1566 1569 1571 1573 1575 1577 1579 1581 1582 1583 1584 1585 1586 1586 1587 1589 1590 1590
1518 1520 1522 1525 1527 1529 1532 1534 1536 1538 1540 1542 1543 1545 1547 1548 1550 1551 1553 1554 1556 1557 1558 1560 1562 1564 1566 1568 1570 1573 1575 1576 1578 1579 1580 1581 1582 1583 1584 1585 1586 1587
1510 1512 1515 1518 1521 1524 1527 1529 1531 1533 1535 1538 1539 1541 1543 1544 1545 1547 1548 1550 1551 1552 1553 1555 1557 1559 1561 1563 1565 1568 1570 1572 1574 1575 1576 1577 1578 1579 1580 1581 1582 1583
1507 1507 1509 1511 1514 1518 1521 1524 1526 1528 1531 1533 1535 1537 1538 1540 1541 1543 1544 1545 1546 1548 1549 1550 1551 1553 1556 1558 1560 1563 1565 1567 1569 1571 1572 1573 1574 1575 1576 1577 1578 1579
1505 1506 1507 1508 1510 1512 1515 1518 1521 1523 1526 1528 1531 1532 1534 1536 1537 1538 1539 1541 1542 1543 1544 1545 1546 1548 1551 1553 1555 1558 1560 1562 1564 1566 1567 1569 1570 1571 1572 1573 1574 1575
1502 1504 1505 1506 1508 1509 1510 1513 1516 1519 1521 1524 1526 1528 1530 1531 1532 1534 1535 1536 1538 1539 1540 1540 1541 1543 1546 1548 1550 1553 1555 1557 1559 1561 1563 1564 1565 1567 1568 1569 1570 1571
1501 1501 1502 1503 1505 1506 1507 1509 1512 1515 1517 1520 1522 1523 1525 1526 1528 1529 1531 1532 1533 1534 1536 1536 1537 1539 1541 1543 1545 1548 1550 1552 1554 1556 1558 1559 1560 1562 1563 1564 1565 1566
1500 1500 1499 1500 1501 1503 1505 1507 1509 1512 1514 1516 1518 1519 1521 1522 1524 1525 1526 1527 1528 1530 1531 1532 1533 1534 1536 1538 1540 1543 1545 1548 1550 1551 1553 1554 1556 1557 1558 1559 1560 1562
1499 1499 1498 1498 1499 1501 1503 1505 1507 1509 1511 1513 1514 1516 1517 1519 1520 1521 1521 1522 1524 1525 1526 1527 1528 1530 1532 1534 1536 1538 1540 1543 1545 1546 1547 1549 1551 1552 1553 1554 1555 1557